Benson, United Kingdom

11:24 AM BST on August 29, 2016 (GMT +0100)
Benson Air Base

Weather History for EGUB - November, 2013

Change the Weather History Date:

Sunday, November 10, 2013

  Actual Average Record
Temperature  
Mean Temperature 40 °F -  
Max Temperature 49 °F 47 °F 60 °F (2015)
Min Temperature 30 °F 37 °F 28 °F (1996)
Degree Days  
Heating Degree Days 26    
Moisture  
Dew Point 37 °F    
Average Humidity 88    
Maximum Humidity 100    
Minimum Humidity 55    
Precipitation  
Precipitation 0.00 in - - ()
Sea Level Pressure  
Sea Level Pressure 30.01 in    
Wind  
Wind Speed 4 mph ()    
Max Wind Speed 13 mph    
Max Gust Speed -    
Visibility 7.6 miles    
Events      
Averages and records for this station are not official NWS values.
T = Trace of Precipitation, MM = Missing Value Source: Averaged Metar Reports

Daily Weather History Graph

Daily Weather History Graph

Search for Another Location

Airport or City:

Trip Planner

Search our weather history database for the weather conditions in past years. The results will help you decide how hot, cold, wet, or windy it might be!

Date:

Astronomy

Nov. 10, 2013 Rise Set
Actual Time 7:14 AM GMT 4:21 PM GMT
Civil Twilight 6:37 AM GMT 4:58 PM GMT
Nautical Twilight 5:57 AM GMT 5:38 PM GMT
Astronomical Twilight 5:18 AM GMT 6:17 PM GMT
Moon 1:05 PM GMT (11/10) No Moon Set
Length of Visible Light 10h 20m
Length of Day
9h 07m
First Quarter, 53% of the Moon is Illuminated
Nov 10
First Quarter
Nov 17
Full
Nov 25
Last Quarter
Dec 3
New
Dec 9
First Quarter

Hourly Weather History & Observations

Time (GMT) Temp. Windchill Dew Point Humidity Pressure Visibility Wind Dir Wind Speed Gust Speed Precip Events Conditions
12:00 AM 43 °F - 42 °F 94% 29.64 in 3 mi SSW 2.3 mph - -   Scattered Clouds
12:50 AM 42.8 °F - 42.8 °F 100% 29.65 in 6.2 mi WSW 2.3 mph - N/A   Mostly Cloudy
1:50 AM 42.8 °F 41.1 °F 41.0 °F 93% 29.65 in 6.2 mi West 3.5 mph - N/A   Mostly Cloudy
2:50 AM 42.8 °F 41.1 °F 41.0 °F 93% 29.71 in 6.2 mi WNW 3.5 mph - N/A   Overcast
3:00 AM 42 °F - 41 °F 96% 29.72 in 11 mi WNW 3.5 mph - -   Scattered Clouds
3:50 AM 42.8 °F 37.5 °F 41.0 °F 93% 29.74 in 5.0 mi NW 9.2 mph - N/A   Scattered Clouds
4:50 AM 41.0 °F 39.0 °F 39.2 °F 93% 29.77 in 6.2 mi WNW 3.5 mph - N/A   Scattered Clouds
5:50 AM 39.2 °F - 37.4 °F 93% 29.83 in 6.2 mi West 1.2 mph - N/A   Unknown
6:00 AM 38 °F - 37 °F 93% 29.85 in 17 mi West 1.2 mph - -  
6:50 AM 37.4 °F 34.9 °F 35.6 °F 93% 29.86 in 6.2 mi West 3.5 mph - N/A   Unknown
7:50 AM 37.4 °F 33.8 °F 37.4 °F 100% 29.92 in 6.2 mi WSW 4.6 mph - N/A   Partly Cloudy
8:50 AM 41.0 °F 37.1 °F 39.2 °F 93% 29.95 in 6.2 mi West 5.8 mph - N/A   Partly Cloudy
9:00 AM 40 °F - 38 °F 92% 29.97 in 19 mi West 5.8 mph - -   Scattered Clouds
9:50 AM 42.8 °F 38.0 °F 39.2 °F 87% 30.01 in 6.2 mi WNW 8.1 mph - N/A   Partly Cloudy
10:50 AM 46.4 °F 40.7 °F 39.2 °F 76% 30.04 in 6.2 mi NW 12.7 mph - N/A   Partly Cloudy
11:50 AM 48.2 °F - 37.4 °F 66% 30.06 in 6.2 mi NW 9.2 mph - N/A   Partly Cloudy
12:00 PM 47 °F - 38 °F 61% 30.09 in 28 mi NW 9.2 mph - -   Scattered Clouds
12:50 PM 48.2 °F - 37.4 °F 66% 30.09 in 6.2 mi WNW 9.2 mph - N/A   Partly Cloudy
1:50 PM 48.2 °F - 37.4 °F 66% 30.09 in 6.2 mi WNW 8.1 mph - N/A   Partly Cloudy
2:50 PM 48.2 °F - 37.4 °F 66% 30.15 in 6.2 mi WNW 5.8 mph - N/A   Partly Cloudy
3:00 PM 49 °F - 38 °F 55% 30.16 in 25 mi WNW 5.8 mph - -   Scattered Clouds
3:50 PM 44.6 °F 43.1 °F 39.2 °F 81% 30.18 in 6.2 mi WNW 3.5 mph - N/A   Scattered Clouds
4:50 PM 35.6 °F - 32.0 °F 87% 30.18 in - South 2.3 mph - N/A   Clear
5:50 PM 32.0 °F 28.7 °F 30.2 °F 93% 30.21 in 6.2 mi East 3.5 mph - N/A   Unknown
6:00 PM 32 °F - 30 °F 90% 30.23 in 16 mi East 3.5 mph - -  
6:50 PM 30.2 °F - 30.2 °F 100% 30.21 in 6.2 mi SSW 1.2 mph - N/A   Unknown
7:50 PM 30.2 °F - 30.2 °F 100% 30.24 in 6.2 mi ESE 1.2 mph - N/A   Unknown
8:50 PM 33.8 °F - 33.8 °F 100% 30.24 in 6.2 mi South 2.3 mph - N/A   Partly Cloudy
9:00 PM 33 °F - 33 °F 100% 30.27 in 13 mi South 2.3 mph - -   Scattered Clouds
9:50 PM 32.0 °F 28.7 °F 32.0 °F 100% 30.24 in 6.2 mi SSE 3.5 mph - N/A   Scattered Clouds
10:50 PM 37.4 °F 34.9 °F 35.6 °F 93% 30.24 in 6.2 mi SSE 3.5 mph - N/A   Mostly Cloudy
11:50 PM 37.4 °F 32.1 °F 35.6 °F 93% 30.24 in 6.2 mi SSE 6.9 mph - N/A   Overcast